COSMOS 886 DEB, 9807

Orbit data source: Space-Track

COSMOS 886 DEB, 9807 is space debris in LEO originally from a launch on Mon, 27 Dec 1976 UTC launched from the Tyuratam Missile And Space Complex (TTMTR). Debris objects in space refer to the collection of defunct objects orbiting the Earth. Examples of debris include non-operational satellites, rocket bodies, and fragments generated from explosions, collisions, or faulty payload assembly.

Loading next visibility...
Identifier
9807, 1976-126AA
Orbit
LEO
Country
Flag of CISCIS
Related business
Manufacturer
Unknown
Mission
Spacecraft
Bus & Motor
Unknown
Mass
Unknown
Launch date (UTC)
1976-12-27 (49 years ago)
Launch vehicle
Unknown
Launch site
Tyuratam Missile And Space Complex (TTMTR)
Object type
Payload
Rocket body
Debris
Shape & HBR
Unknown shape, 0.1 m
Radar Cross Section
Medium (>0.1 m² and <1 m²)

Expand to show TLE details & history
Last TLE update: 1 day ago

TLE from 1 day ago
0 COSMOS 886 DEB
1 09807U 76126AA  26174.49907867  .00011759  00000-0  15419-2 0  9991
2 09807  65.7678 294.7764 0359839 197.4899 161.3544 14.44332562435828
Epoch: 2026-06-23T11:58Z
TLE epoch observation values (Epoch: 2026-06-23T11:58:40.397Z)
Latitude
0.00002°
Longitude
-156.56168°
Altitude
990.028 km
Speed
7.23 km/s
True Right ascension
19h 39m 06s
True Declination
0° 00' 00"
Sunlit
Object was in full shadow at epoch
Visualization orbit readout
Latitude
Unknown
Longitude
Unknown
Altitude
Unknown
Speed
Unknown
Apparent Right ascension
Unknown
Apparent Declination
Unknown
Sunlit
N/A
Visualization observer readout
Local Sidereal Time
06:17:00
Azimuth
Unknown
Elevation
Unknown
Doppler factor
Unknown
Orbital elements
Apogee altitude
998.927 km
Perigee altitude
486.457 km
Semi-major axis
7,120.829 km
Eccentricity
0.03598
Inclination
65.7678°
RAAN
294.7764°
Arg. of periapsis
197.4899°
True anomaly
162.61865°
Mean anomaly
161.3544°
Eccentric anomaly
161.99179°
Mean motion
3.612 °/min
Orbital period
99.67 mins
BSTAR
0.0015419
Loading maneuver chart data...
Computing Atmospheric mass density...
Loading historical data...
Loading historical data...
Loading historical data...
Loading historical data...
Loading historical data...
Loading historical data...
Loading historical data...

Documentation

Showing up to 5 results
|